This demonstration page uses our WeatherBlox Daily Observations layout. Learn more.

Left ArrowRight Arrow

Hourly Observations for May 25, 2017

Temp ( °F °C ) Dew Point ( °F °C ) Humidity (%) Winds ( mph kmh ) Pressure ( in mb ) Visibility ( mi km ) Precip ( " mm )
12:54 am 00:54 Clear 51 10.6 44 6.7 77 77 SSE 6 9 29.66 1004 10 16.0934 0 0
1:54 am 01:54 Clear 52 11.1 44 6.7 75 75 S 5 7 29.66 1004 10 16.0934 0 0
2:54 am 02:54 Clear 48 8.9 43 6.1 83 83 S 7 11 29.65 1004 10 16.0934 0 0
3:54 am 03:54 Clear 47 8.3 43 6.1 86 86 S 6 9 29.64 1004 10 16.0934 0 0
4:54 am 04:54 Clear 46 7.8 43 6.1 89 89 S 7 11 29.64 1004 10 16.0934 0 0
5:54 am 05:54 Clear 48 8.9 45 7.2 89 89 SSE 8 13 29.63 1003 10 16.0934 0 0
6:54 am 06:54 Sunny 52 11.1 47 8.3 83 83 SSE 7 11 29.64 1004 10 16.0934 0 0
7:54 am 07:54 Sunny 55 12.8 49 9.4 80 80 SSE 9 15 29.62 1003 10 16.0934 0 0
8:54 am 08:54 Partly Cloudy with Light Rain 61 16.1 49 9.4 65 65 S 13 20 29.63 1003 10 16.0934 0 0.0254
9:54 am 09:54 Sunny 66 18.9 49 9.4 54 54 S 18 30 29.62 1003 10 16.0934 0 0.0254
10:54 am 10:54 Sunny 69 20.6 47 8.3 45 45 S 22 35 29.59 1002 10 16.0934 0 0
11:54 am 11:54 Sunny 72 22.2 48 8.9 43 43 S 16 26 29.6 1002 10 16.0934 0 0
12:54 pm 12:54 Sunny 75 23.9 49 9.4 40 40 S 21 33 29.56 1001 10 16.0934 0 0.0254
1:54 pm 13:54 Sunny 75 23.9 50 10 41 41 S 21 33 29.52 1000 10 16.0934 0 0
2:54 pm 14:54 Sunny 78 25.6 52 11.1 40 40 SSE 16 26 29.52 1000 10 16.0934 0 0
3:54 pm 15:54 Sunny 76 24.4 52 11.1 43 43 S 18 30 29.51 999 10 16.0934 0 0
4:54 pm 16:54 Sunny 77 25 52 11.1 42 42 S 16 26 29.52 1000 10 16.0934 0 0.0254
5:54 pm 17:54 Sunny 78 25.6 54 12.2 43 43 SSE 14 22 29.51 999 10 16.0934 0 0
6:54 pm 18:54 Sunny 77 25 54 12.2 45 45 SSE 9 15 29.52 1000 10 16.0934 0 0
7:54 pm 19:54 Sunny 72 22.2 55 12.8 55 55 S 7 11 29.56 1001 10 16.0934 0 0
8:54 pm 20:54 Clear 71 21.7 55 12.8 57 57 SE 6 9 29.58 1002 10 16.0934 0 0
9:54 pm 21:54 Mostly Cloudy 70 21.1 55 12.8 59 59 SE 8 13 29.6 1002 10 16.0934 0 0
10:54 pm 22:54 Cloudy 70 21.1 56 13.3 61 61 SSE 8 13 29.62 1003 10 16.0934 0 0
11:54 pm 23:54 Mostly Cloudy 68 20 56 13.3 65 65 S 9 15 29.63 1003 10 16.0934 0 0

Powered by AerisWeather